User: anonymous   Login
Location: Mladá Boleslav
(50.4134°N, 14.9084°E)
Time: 20:11:51
(UTC+02:00)
Language:

FO-29 - Orbit

View from above orbital plane
View from above orbital plane
View from above satellite
View from above satellite

Ground track
Ground track

The orbit data is extracted from the following two-line orbital elements,

1 24278U 96046B   24147.08495034  .00000015  00000-0  54414-4 0  9997
2 24278  98.5798  84.6374 0349153 245.4288 111.0095 13.53188913371696
Epoch (UTC): 26 May 2024 02:02:19
Eccentricity: 0.0349153
inclination: 98.5798°
perigee height: 801 km
apogee height: 1320 km
right ascension of ascending node: 84.6374°
argument of perigee: 245.4288°
revolutions per day: 13.53188913
mean anomaly at epoch: 111.0095°
orbit number at epoch: 37169

The dashed part of the orbit path shows where the satellite is in the earth's shadow,  

DLR